Home > Weather > Eckernförde > Past weeks

Flag for Germany Past Weather in Eckernförde, Schleswig-Holstein, Germany — Yesterday and Last 2 Weeks

Now
64 °F

Passing clouds.


Feels Like: 64 °F
Forecast: 56 / 71 °F
Wind: 7 mph from Northwest

Location: Schleswig-Jagel

Current Time: Jul 26, 2016 at 10:21:39 AM

Latest Report: Jul 26, 2016 at 9:20 AM


Visibility: N/A

Pressure: 30.09 "Hg

Humidity: 73%

Dew Point: 55 °F

Location of EckernfördeLocation

Past Weather in Eckernförde — Graph

°F

Eckernförde Temperature Yesterday

Maximum temperature yesterday: 77 °F (at 11:20 AM)
Minimum temperature yesterday: 63 °F (at 1:20 AM)
Average temperature yesterday: 69 °F

High & Low Weather Summary for the Past Weeks

 TemperatureHumidityPressure
High82 °F (Jul 20, 4:20 PM)100% (Jul 13, 1:20 AM)30.18 "Hg (Jul 13, 1:20 AM)
Low48 °F (Jul 14, 3:20 AM)42% (Jul 23, 2:20 PM)29.65 "Hg (Jul 11, 8:20 AM)
Average64 °F80%30.01 "Hg
* Reported Jul 11 8:20 AM — Jul 26 8:20 AM, Eckernförde, Weather by CustomWeather, © 2016

Note: Actual official high and low records may vary slightly from our data, if they occured in-between our weather recording intervals... More about our weather records

Advertising

Eckernförde Weather History for the Previous 24 Hours

Scroll right to see more
 ConditionsComfort  
Time TempWeatherWind HumidityBarometerVisibility
8:20 AM
Tue, Jul 26
63 °FScattered clouds.7 mph83%30.09 "HgN/A
7:20 AM61 °FScattered clouds.5 mph83%30.09 "HgN/A
6:20 AM57 °FPassing clouds.6 mph94%30.07 "HgN/A
5:20 AM57 °FCool.6 mph94%30.07 "Hg4 mi
4:20 AM57 °FCool.6 mph94%30.07 "Hg4 mi
3:20 AM59 °FCool.6 mph94%30.07 "Hg4 mi
2:20 AM61 °FCool.6 mph94%30.07 "Hg4 mi
1:20 AM63 °FMild.5 mph88%30.07 "Hg4 mi
12:20 AM64 °FMild.7 mph94%30.07 "Hg4 mi
11:20 PM
Mon, Jul 25
66 °FMild.8 mph88%30.07 "Hg4 mi
10:20 PM68 °FMild.6 mph83%30.07 "Hg4 mi
9:20 PM68 °FMild.7 mph83%30.04 "Hg4 mi
8:20 PM70 °FMild.9 mph78%30.04 "Hg5 mi
7:20 PM72 °FMild.10 mph73%30.04 "Hg4 mi
6:20 PM72 °FMild.12 mph69%30.04 "Hg4 mi
5:20 PM73 °FMild.12 mph69%30.04 "Hg4 mi
4:20 PM73 °FScattered clouds.10 mph78%30.01 "HgN/A
3:20 PM70 °FBroken clouds.18 mph78%30.04 "Hg6 mi
2:20 PM75 °FBroken clouds.15 mph69%30.01 "Hg6 mi
1:20 PM75 °FBroken clouds.13 mph74%30.01 "Hg6 mi
12:20 PM77 °FPartly sunny.8 mph65%30.01 "Hg6 mi
11:20 AM77 °FPartly sunny.6 mph61%30.01 "Hg6 mi
10:20 AM75 °FPartly sunny.1 mph69%30.01 "Hg5 mi
Weather by CustomWeather, © 2016

See weather overviewHow to use our weather pages